Theta_e
327 328 330 333 329 327 334 333 330 334 336 335 332 331 328 331 333 335 328 332 331 317 315 327 325 329 333 334 325 324 332 335 335 325 312 308 309 309 310 310 311 311 312 314 315 317 316 315 314
327 327 329 331 329 332 331 329 334 333 335 335 335 333 332 331 329 329 332 333 330 315 320 326 326 329 335 335 332 327 335 336 334 325 310 309 309 310 310 312 314 316 318 319 319 318 317 317 317
327 327 329 325 325 331 331 330 332 333 335 336 335 333 331 329 328 328 331 332 328 313 324 324 323 332 335 335 333 330 336 336 331 321 308 310 311 311 313 315 317 317 315 312 310 310 311 310 310
326 326 326 328 331 328 329 331 331 334 335 335 334 329 330 329 327 326 329 332 326 313 321 317 322 328 335 334 332 335 336 335 330 315 308 310 312 314 315 315 314 312 311 312 314 315 315 314 314
326 326 326 327 328 329 328 331 334 332 333 334 334 332 332 326 324 322 328 331 324 317 328 318 320 324 332 335 336 336 335 333 319 309 308 311 314 314 314 313 312 313 314 316 318 318 318 319 319
326 323 327 330 329 328 327 334 334 334 334 334 334 333 332 331 330 325 323 329 326 318 330 324 322 323 324 325 330 330 326 316 309 308 309 313 315 313 312 313 314 316 318 318 318 318 320 321 322
325 322 326 327 329 330 329 331 333 333 334 334 334 331 332 333 330 326 326 326 328 323 330 328 324 322 323 322 320 317 312 308 308 309 312 316 314 312 313 315 316 317 317 318 320 325 326 326 326
325 321 325 324 328 331 329 333 333 335 333 334 334 330 329 332 330 328 327 325 324 324 329 329 325 322 321 317 313 310 309 308 309 311 318 316 311 313 315 317 317 317 319 321 324 325 325 325 325
326 324 326 326 328 329 329 331 334 334 335 335 334 334 331 332 330 328 327 323 324 323 327 329 323 318 316 313 311 309 309 310 311 319 317 311 312 315 316 317 317 319 322 324 325 325 326 326 326
324 323 325 323 323 327 328 329 334 334 334 334 335 334 333 332 330 328 324 324 323 325 327 328 323 318 317 312 310 309 310 313 319 317 312 311 314 316 317 318 320 322 324 325 326 327 327 327 327
323 324 323 324 324 323 326 326 334 333 332 334 334 334 332 331 329 328 326 324 324 324 328 328 326 323 317 311 310 311 316 320 318 314 312 313 315 317 318 320 323 325 324 325 326 327 327 327 325
324 324 325 325 325 323 322 326 327 334 334 334 334 334 332 330 330 329 328 324 325 325 327 328 327 323 315 311 312 316 320 320 316 315 314 315 317 319 321 324 325 325 326 326 326 327 327 326 316
323 323 325 326 325 325 322 322 325 331 332 333 332 334 332 330 330 329 328 325 326 326 324 327 324 318 315 311 315 320 322 319 317 316 316 317 319 322 325 325 325 325 325 325 326 325 325 321 310
325 325 325 325 325 323 321 322 323 326 331 332 330 333 332 330 329 328 328 327 325 323 322 321 322 320 318 313 318 322 322 321 320 319 317 320 323 325 325 325 325 324 324 324 325 325 322 311 309
327 326 324 325 325 324 324 323 322 327 331 332 332 332 331 329 328 329 329 327 324 323 322 323 324 322 321 317 323 325 327 324 324 323 325 325 325 325 324 324 324 324 323 324 325 323 315 310 308
327 327 329 325 325 325 324 326 322 327 332 331 331 331 331 329 329 329 329 327 324 324 325 325 325 325 324 324 327 326 326 327 326 325 323 324 324 323 323 323 323 323 323 322 323 322 316 310 307
325 329 329 327 324 325 326 326 321 328 331 331 331 330 330 330 329 329 328 327 324 325 327 328 327 327 326 327 326 325 325 326 325 324 322 323 323 323 323 323 322 322 322 322 321 315 311 308 307
324 320 327 329 325 325 326 325 323 330 331 330 330 330 330 330 330 329 328 326 325 325 327 328 327 328 328 327 325 326 327 327 325 324 324 321 323 322 322 323 322 322 320 316 312 308 306 307 309
320 316 316 315 315 324 327 327 324 327 331 331 330 329 329 330 330 328 327 326 326 326 326 327 327 329 328 326 326 327 326 327 326 325 323 323 323 323 324 323 323 317 309 306 305 306 309 311 311
317 320 317 316 316 322 327 327 324 323 331 332 331 329 328 329 330 329 327 326 327 328 328 328 328 328 329 327 327 327 328 327 326 325 324 324 324 324 321 316 312 307 304 308 310 311 312 311 308
317 317 320 317 316 316 316 327 327 324 323 330 331 331 329 329 329 330 327 327 328 328 329 329 329 329 329 328 328 327 327 324 324 325 324 323 320 316 308 306 305 308 310 312 312 311 308 302 297
316 314 316 316 316 320 319 327 328 326 324 321 327 331 329 328 329 329 328 328 328 330 330 330 330 330 330 330 329 328 327 325 324 322 319 313 305 306 307 310 311 311 311 311 308 300 296 296 295
313 315 316 315 315 316 319 322 326 326 327 324 324 330 330 328 328 328 329 328 329 330 330 331 330 331 328 331 330 330 327 324 323 318 310 308 309 311 311 311 311 311 309 299 296 295 295 294 293
312 312 313 315 317 320 319 322 328 327 327 324 327 330 328 328 327 328 328 328 329 329 330 331 331 331 329 330 330 328 324 319 310 308 310 311 310 312 312 310 306 298 295 295 295 294 293 292 291
313 316 317 321 320 323 322 326 327 324 324 324 325 323 322 322 325 326 326 326 328 329 330 330 329 328 324 328 325 322 316 313 315 315 312 311 311 311 306 297 295 295 294 293 292 292 291 290 290
313 315 318 318 322 321 322 327 326 316 317 325 324 322 320 318 319 321 322 323 326 327 327 327 327 328 327 323 319 315 314 314 311 312 311 310 307 302 295 295 294 294 293 292 291 290 290 289 288
312 316 313 316 315 318 322 317 315 315 319 322 314 316 315 315 315 318 318 320 321 323 324 324 325 324 319 316 316 313 312 311 311 310 308 306 297 294 294 294 293 292 291 291 290 289 288 288 287
313 311 316 315 319 320 322 322 321 317 314 312 311 310 309 312 314 313 315 316 316 317 317 318 317 316 314 313 312 312 311 311 310 307 303 295 294 294 294 293 292 291 290 290 289 288 288 287 286
312 314 314 315 316 318 321 322 310 309 312 310 308 306 305 306 309 309 311 314 314 311 312 314 314 313 312 311 311 310 309 308 305 299 294 294 294 294 293 292 291 291 290 289 288 287 286 285 285
311 311 316 316 317 316 317 320 308 309 311 308 305 303 304 306 307 307 309 308 307 309 309 310 312 310 309 310 310 309 305 300 295 294 293 293 293 293 292 291 291 290 289 288 287 286 285 285 284
Wind_Speed
10 3 6 1 3 4 2 3 2 2 3 2 7 4 7 4 3 3 15 18 21 18 19 17 15 13 10 11 13 13 13 12 9 7 9 10 11 12 12 14 14 14 14 13 13 12 11 10 9
10 2 3 1 4 2 4 3 3 2 9 16 12 6 3 2 4 11 22 21 20 18 20 18 15 11 7 13 16 14 15 14 8 7 8 9 10 12 13 13 13 13 12 12 12 11 11 10 9
9 2 2 3 3 5 4 4 3 5 14 5 5 4 2 3 7 24 20 26 21 19 19 17 15 11 11 17 18 15 17 13 6 6 6 9 11 12 12 12 12 12 12 12 13 14 13 12 10
9 2 3 4 4 5 5 3 6 9 0 3 9 6 4 3 20 19 25 26 22 20 18 18 15 13 13 16 16 18 17 11 3 3 6 8 10 11 11 11 11 12 14 15 15 16 17 17 17
8 2 2 2 4 4 4 6 14 7 7 7 7 5 7 16 11 18 25 26 23 21 19 18 16 14 14 16 18 17 14 7 2 2 5 8 9 9 10 11 12 14 14 15 15 15 15 14 14
6 1 1 4 4 4 3 7 6 8 8 10 7 11 7 13 12 21 23 25 22 21 20 18 17 15 14 14 14 12 9 6 4 6 7 8 9 10 11 13 14 14 13 13 12 12 11 10 10
1 1 4 3 4 2 5 7 6 7 9 8 14 6 5 16 17 22 22 22 23 22 22 19 17 16 14 13 12 10 8 6 7 8 8 9 9 11 13 13 13 12 11 10 9 9 9 8 8
2 2 5 3 5 6 5 8 6 11 6 12 14 7 6 24 23 24 22 21 22 23 22 20 18 16 15 12 11 9 9 9 9 9 8 8 10 12 12 12 10 9 8 7 6 6 7 8 10
3 2 3 4 4 5 9 4 6 8 13 11 15 7 6 28 29 27 25 23 25 24 23 20 18 16 14 12 11 11 11 11 11 10 10 11 12 12 10 9 7 6 5 4 5 6 8 10 11
7 5 7 4 4 5 7 10 17 8 10 9 12 11 11 33 35 33 30 30 29 27 26 22 19 17 14 12 12 12 13 12 11 10 11 12 11 10 8 6 6 4 3 4 6 8 10 14 15
7 6 5 8 11 12 8 5 17 10 4 16 24 21 22 38 37 34 31 30 30 28 27 24 20 17 14 14 14 14 14 13 11 11 11 11 10 9 7 5 3 1 2 5 9 10 12 15 18
6 11 15 15 18 7 5 7 7 19 13 25 22 22 31 40 40 38 33 31 29 28 27 24 20 17 15 15 15 15 14 12 10 10 10 9 8 7 5 3 2 3 6 8 10 12 14 17 18
8 7 17 18 19 15 17 14 9 20 14 17 22 27 34 39 39 36 30 27 27 26 28 24 21 18 15 16 16 15 13 11 10 9 9 10 8 6 5 3 2 3 5 8 12 13 14 16 15
6 19 17 19 17 6 5 11 8 15 18 17 26 32 37 40 40 37 32 27 26 24 27 24 20 19 15 16 16 13 11 11 11 9 9 10 8 7 7 4 4 5 7 10 14 16 17 16 12
16 11 10 22 24 6 9 9 6 12 21 25 30 33 37 39 38 38 33 29 26 24 24 24 19 20 16 16 14 13 11 11 11 9 8 7 6 7 5 5 5 9 10 13 16 15 15 13 11
4 6 15 19 17 9 7 10 8 14 25 24 28 32 36 39 37 35 33 28 26 24 25 24 20 19 17 17 17 14 14 12 11 11 9 8 8 7 8 8 9 11 12 16 16 15 13 12 11
10 12 23 13 19 11 13 5 13 18 23 21 24 30 32 35 37 36 33 28 25 24 25 24 21 19 20 20 19 18 17 15 13 12 11 10 10 10 11 11 12 15 16 17 17 14 12 11 11
12 3 13 14 21 22 18 12 12 18 22 23 25 26 29 33 38 37 34 29 25 24 24 22 21 22 23 22 20 19 19 18 16 14 13 12 13 12 13 14 16 16 15 13 11 11 10 11 12
19 5 5 5 10 13 26 16 18 13 22 18 18 21 27 35 37 34 34 30 27 26 26 25 25 26 23 24 22 21 19 19 19 17 15 16 16 18 17 17 16 13 9 7 7 6 7 8 10
17 16 12 9 12 9 19 26 14 12 15 20 25 24 25 29 36 36 34 34 31 28 28 28 27 27 25 24 23 22 22 19 18 19 19 19 18 17 14 11 8 5 4 3 5 8 13 16 16
14 19 20 10 8 12 11 20 18 8 8 19 18 24 28 37 39 38 37 36 33 33 31 30 29 28 27 26 25 25 22 20 21 21 21 18 15 12 6 3 0 3 6 11 16 18 17 12 8
6 8 9 6 2 9 8 5 26 18 12 9 19 20 26 33 37 39 37 36 35 33 31 31 29 30 31 30 29 28 26 28 26 20 16 13 8 5 6 3 2 7 13 17 16 10 8 8 7
3 6 10 7 5 3 10 7 9 27 18 12 14 25 30 35 37 40 38 35 36 34 32 32 32 31 34 34 32 31 32 29 26 21 16 10 10 7 4 8 13 14 10 6 7 8 9 9 8
6 3 6 9 5 5 16 14 9 22 27 12 13 21 30 35 36 38 35 35 36 35 34 33 34 33 35 37 35 33 32 30 23 16 12 8 6 4 7 7 4 4 5 7 8 9 9 9 9
8 5 2 3 2 7 8 12 5 20 27 18 16 25 25 31 36 37 37 35 35 34 33 32 32 30 27 28 27 25 21 15 14 12 10 7 4 2 2 2 3 4 6 7 8 9 10 10 10
8 4 4 4 1 6 10 8 3 3 4 32 27 28 28 28 32 36 36 35 33 31 29 26 25 21 20 21 16 16 17 16 14 12 7 6 5 3 2 2 4 5 7 7 8 9 10 11 12
4 4 4 4 3 5 2 1 1 5 7 18 22 32 27 28 30 33 33 33 32 32 29 28 26 23 21 19 19 20 17 15 10 11 10 6 4 3 2 3 3 4 6 7 9 9 10 11 12
4 8 4 1 2 5 5 2 2 1 4 9 14 19 27 30 31 30 30 29 27 26 27 26 23 21 23 21 22 19 17 13 11 10 8 6 5 4 2 2 4 5 6 7 9 10 11 11 11
4 2 3 3 3 3 4 2 3 9 6 8 9 15 25 28 30 30 30 28 27 27 26 27 26 22 21 22 19 18 14 13 11 9 7 6 5 3 2 2 3 5 7 8 9 9 10 10 11
4 4 3 2 1 2 3 3 8 9 7 13 14 15 21 25 26 26 26 25 26 27 30 28 23 23 21 17 18 16 14 12 10 8 7 6 3 2 1 2 4 6 6 7 9 10 10 11 12
Wind_Direction
350 314 304 201 63 63 245 244 277 132 115 197 124 159 165 107 159 192 148 155 155 155 153 154 157 154 158 171 166 156 155 150 130 75 58 75 92 94 92 88 85 81 80 79 77 74 71 67 62
347 338 290 104 98 91 266 277 229 137 126 105 96 96 83 123 144 148 149 151 159 157 155 155 157 152 153 166 165 157 158 153 134 70 60 77 92 92 92 88 88 87 82 76 71 67 61 57 54
342 324 187 101 122 177 218 204 204 133 142 114 105 84 97 170 169 155 155 155 161 162 159 159 156 140 135 148 156 155 157 157 133 72 79 100 105 104 97 94 88 82 77 74 71 68 63 56 51
344 246 79 108 223 243 200 190 137 137 119 160 139 82 100 247 153 158 157 158 164 163 162 163 157 145 133 146 153 153 159 160 135 83 107 111 108 106 97 93 88 85 82 79 77 70 65 61 58
331 266 102 155 233 249 230 179 154 159 145 147 158 155 122 143 144 160 161 163 169 166 165 165 162 156 143 141 146 154 165 177 185 117 124 115 109 101 95 94 92 88 85 82 76 69 64 59 55
323 321 123 204 235 250 247 185 174 148 149 152 128 132 155 179 187 166 164 168 173 172 169 167 167 167 164 162 165 173 188 197 183 152 139 124 113 105 104 102 98 94 88 82 76 67 58 52 47
288 18 232 184 234 246 222 187 178 160 158 188 152 125 177 177 178 173 167 172 179 180 176 174 174 175 176 180 184 188 192 189 171 157 144 130 120 117 115 112 108 99 88 80 70 61 52 42 32
272 97 305 246 194 237 196 170 183 162 177 156 168 172 187 178 173 175 174 177 182 184 183 180 180 181 183 187 190 188 187 177 165 154 146 138 133 128 126 121 113 98 85 78 64 45 27 16 5
212 61 286 283 179 240 171 163 180 179 158 177 187 184 199 178 173 176 178 178 181 184 186 185 183 180 183 190 191 184 176 169 161 157 153 148 141 137 133 124 115 106 89 63 31 16 360 350 347
171 163 213 225 285 284 212 183 172 167 161 198 194 205 204 177 177 180 181 177 181 186 184 187 186 186 186 189 186 180 172 166 163 162 158 153 150 147 144 136 126 108 73 23 360 346 343 341 338
193 195 212 276 304 290 277 228 183 155 230 201 203 192 180 177 183 186 184 184 183 188 188 186 190 192 193 188 182 177 173 169 168 169 166 163 162 163 164 156 140 102 338 351 342 336 333 332 333
234 210 218 252 262 310 286 264 205 184 210 219 217 210 183 183 187 190 188 187 186 189 192 189 192 194 189 187 181 179 174 171 172 173 172 171 175 178 175 174 192 339 343 333 330 326 327 329 332
227 200 226 251 269 272 276 257 226 213 199 204 210 200 194 191 191 194 194 192 193 194 192 192 193 191 188 184 182 178 178 177 178 176 180 181 182 187 193 210 271 327 323 321 322 322 324 328 329
190 214 229 236 255 252 270 268 230 220 208 191 193 194 196 195 194 193 194 196 195 194 190 188 187 184 185 185 182 180 180 179 178 183 188 189 192 204 220 259 282 304 307 311 313 323 326 330 334
255 246 242 230 233 232 17 274 237 240 191 186 189 191 194 198 197 197 195 195 195 192 187 188 183 180 181 181 175 175 177 188 190 191 191 198 203 219 228 263 283 298 304 304 308 319 325 323 324
220 213 233 222 215 208 144 259 244 223 188 185 188 190 195 198 201 200 199 196 196 192 188 183 181 179 177 177 179 188 197 202 196 201 195 206 217 235 258 274 286 296 300 293 299 307 303 305 309
219 233 233 238 215 202 188 232 247 210 197 184 186 191 192 198 199 202 201 201 197 195 194 191 188 182 181 183 192 203 208 210 212 211 213 218 232 252 267 282 288 296 297 298 295 297 292 293 312
249 267 246 238 220 218 215 218 265 201 196 194 192 190 192 197 202 199 199 202 201 199 199 198 195 193 192 197 203 207 210 214 218 224 225 242 246 255 264 272 283 281 281 283 282 289 301 313 326
267 202 236 274 302 259 215 226 227 220 210 195 191 194 196 203 202 200 199 202 203 204 201 201 197 201 202 206 209 206 213 215 217 224 234 239 250 253 256 259 260 264 266 275 286 306 321 341 348
260 237 238 274 276 300 226 222 226 203 217 207 195 196 197 197 202 198 201 202 203 204 203 201 203 204 207 211 216 221 219 218 222 228 233 239 242 242 244 247 249 247 288 323 339 346 340 338 332
241 252 232 243 295 276 294 238 216 229 224 213 210 204 201 201 200 197 198 204 204 207 208 207 205 207 208 216 219 220 220 226 228 227 229 227 226 228 207 228 218 41 1 341 331 328 331 341 356
254 229 233 187 223 251 160 301 217 206 215 201 194 192 195 201 201 197 200 204 206 205 207 209 209 213 216 215 218 220 226 224 216 211 208 200 174 173 139 110 319 287 298 314 319 333 349 3 4
269 167 200 169 219 250 220 255 233 199 219 203 186 184 194 202 198 196 200 203 205 206 206 209 210 214 214 215 216 224 222 216 208 199 190 161 141 147 199 265 289 304 321 329 355 359 0 5 15
159 202 235 232 210 235 241 214 218 190 197 194 171 177 187 194 193 193 195 197 199 199 202 206 210 211 213 216 216 219 211 196 175 145 143 169 194 249 288 315 346 18 359 2 1 2 5 10 15
201 179 240 255 190 262 239 208 220 203 192 182 173 159 178 189 191 190 190 191 193 196 201 205 208 200 197 208 209 206 198 168 152 142 161 167 199 191 105 66 21 20 10 11 15 15 12 11 8
199 215 145 171 295 298 224 199 184 340 305 191 161 162 182 185 190 187 188 188 187 188 191 194 193 203 214 208 194 160 154 153 155 141 163 165 148 120 104 37 17 18 20 15 13 12 10 9 5
183 185 158 108 221 234 323 306 49 44 75 136 139 155 166 184 187 189 187 186 184 183 183 190 189 187 176 158 151 145 149 157 154 149 149 136 150 139 91 39 26 26 23 14 12 9 5 4 1
274 156 157 145 31 328 279 184 102 51 135 128 143 144 157 178 183 187 183 181 182 184 179 174 164 156 150 148 146 148 161 158 156 146 145 158 146 109 87 54 33 21 13 9 5 360 358 357 356
346 245 84 113 116 253 287 17 325 314 182 151 130 138 156 174 175 181 178 178 183 176 169 153 148 152 153 161 152 153 152 155 158 147 153 153 128 110 75 45 18 11 7 359 353 351 351 348 349
147 304 344 100 163 239 259 318 311 303 160 147 136 139 160 172 171 176 178 174 171 161 157 149 144 163 168 155 154 156 155 157 151 156 157 143 139 129 83 13 3 358 352 345 345 340 341 342 344